Location: Blackwater Beach
(38.5801°N, 75.1577°W)
Time: 02:46:20
(UTC+00:00)

Cosmos 2297 Rocket - Pass Details

Date: 22 May 2026
Orbit: 838 x 842 km, 71.0° (Epoch: 9 June)

Event Time Altitude Azimuth Distance (km) Brightness Sun altitude
Exits shadow 04:40:31 13° 271° (W) 2,243 4.4 -30.9°
Maximum altitude 04:43:29 19° 307° (NW) 1,911 4.4 -30.9°
Drops below altitude 10° 04:47:23 10° 351° (N) 2,461 5.5 -31.0°
Sets 04:50:37 0° 9° (N) 3,401 6.5 -31.0°
